SATCOM 3 DEB, 32993

Orbit data source: Space-Track

SATCOM 3 DEB, 32993 is space debris in HEO originally from a launch on Fri, 07 Dec 1979 UTC launched from the Air Force Eastern Test Range (AFETR). Debris objects in space refer to the collection of defunct objects orbiting the Earth. Examples of debris include non-operational satellites, rocket bodies, and fragments generated from explosions, collisions, or faulty payload assembly.

Loading next visibility...
Identifier
32993, 1979-101U
Orbit
HEO
Country
Flag of USUS
Related business
Manufacturer
Unknown
Mission
Spacecraft
Bus & Motor
Unknown
Mass
Unknown
Launch date (UTC)
1979-12-07 (47 years ago)
Launch vehicle
Unknown
Launch site
Air Force Eastern Test Range (AFETR)
Object type
Payload
Rocket body
Debris
Shape & HBR
Unknown shape, 1.1 m
Radar Cross Section
Medium (>0.1 m² and <1 m²)

Expand to show TLE details & history
Last TLE update: 2 days ago

TLE from 2 days ago
0 SATCOM 3 DEB
1 32993U 79101U   26171.33988079 -.00000088  00000-0  00000+0 0  9994
2 32993   7.0997 171.6065 4663629 303.1775 174.2961  1.81414190128761
Epoch: 2026-06-20T08:09Z
TLE epoch observation values (Epoch: 2026-06-20T08:09:25.700Z)
Latitude
6.0878°
Longitude
-98.30759°
Altitude
35,248.64 km
Speed
2.262 km/s
True Right ascension
19h 30m 25s
True Declination
6° 04' 54"
Sunlit
Object was in daylight at epoch
Visualization orbit readout
Latitude
Unknown
Longitude
Unknown
Altitude
Unknown
Speed
Unknown
Apparent Right ascension
Unknown
Apparent Declination
Unknown
Sunlit
N/A
Visualization observer readout
Local Sidereal Time
23:21:47
Azimuth
Unknown
Elevation
Unknown
Doppler factor
Unknown
Orbital elements
Apogee altitude
35,266.864 km
Perigee altitude
8,777.264 km
Semi-major axis
28,400.201 km
Eccentricity
0.46636
Inclination
7.0997°
RAAN
171.6065°
Arg. of periapsis
303.1775°
True anomaly
177.65229°
Mean anomaly
174.2961°
Eccentric anomaly
176.10922°
Mean motion
0.45348 °/min
Orbital period
793.86 mins
BSTAR
0
Loading maneuver chart data...
Computing Atmospheric mass density...
Loading historical data...
Loading historical data...
Loading historical data...
Loading historical data...
Loading historical data...
Loading historical data...
Loading historical data...

Documentation

Showing up to 5 results
|